[[{"header":{"parameterUnit":"m.s-1","parameterCategory":2,"la1":30.2991,"la2":30.254,"lo1":-89.0895,"lo2":-89.0444,"dy":0.0017,"dx":0.0017,"nx":28,"ny":28,"refTime":"2025-01-26T03:00:00:Z","depth":"0","parameterNumber":2,"parameterNumberName":"U-component_of_CURRENTS"},"data":[0,0,0,0,0,0,0,0,0,0,0,0,0,0,0,0,0,0,0,0,0,0,0,0,0,0,0,0,0,0,0,0,0,0,0,0,0,0,0,0,0,0,0,0,0,0,0,0,0,0,0,0,0,0,0,0,0,0,0.3596,0.3597,0,0.3654,0.3654,0.3654,0.3633,0.3632,0.3631,0.363,0.3587,0.3587,0.3587,0,0,0,0,0,0,0,0,0,0,0,0,0,0.3482,0.3484,0.3596,0.3597,0.3598,0.3654,0.3654,0.3654,0.3633,0.3632,0.3631,0.363,0.3587,0.3587,0.3587,0,0,0,0,0,0,0,0,0,0,0,0,0,0.3531,0.3484,0.3596,0.3597,0.3598,0.3654,0.3654,0.3655,0.3633,0.3632,0.3631,0.3629,0.3588,0.3587,0.3587,0.3613,0,0,0.3586,0.3585,0,0,0,0,0,0,0,0,0.3528,0.3535,0.3596,0.3597,0.3598,0.3638,0.3599,0.3637,0.3634,0.3616,0.363,0.3629,0.3599,0.3597,0.3607,0.3611,0.3609,0.3586,0.3585,0.3585,0.3585,0,0,0,0,0,0,0,0.3525,0.3532,0.3615,0.3597,0.3599,0.36,0.3605,0.3606,0.361,0.3617,0.3617,0.363,0.3598,0.3608,0.3606,0.3609,0.3586,0.3585,0.3585,0.3585,0.3658,0.366,0,0,0,0,0,0,0.3527,0.3529,0.3613,0.3617,0.3563,0.3604,0.3609,0.3624,0.3612,0.3611,0.3631,0.3629,0.3609,0.3606,0.3604,0.3664,0.3585,0.3585,0.3585,0.3656,0.3658,0.3661,0,0,0,0,0,0,0.3524,0.3534,0.3611,0.3577,0.3587,0.3607,0.3624,0.3626,0.3636,0.3624,0.362,0.364,0.3608,0.3605,0.3613,0.366,0.3585,0.3584,0.3653,0.3657,0.366,0.3764,0,0,0,0,0,0,0.3521,0.3533,0.3545,0.3578,0.359,0.3644,0.3626,0.3628,0.3648,0.3645,0.3631,0.3625,0.3606,0.3614,0.3613,0.3658,0.3584,0.365,0.3655,0.3659,0.3758,0.377,0.3781,0,0,0,0,0,0.3516,0.3544,0.3545,0.3555,0.3606,0.3646,0.3652,0.3658,0.365,0.366,0.3655,0.3626,0.3639,0.3616,0.3614,0.366,0.3649,0.3654,0.3658,0.3752,0.3768,0.3781,0,0,0,0,0,0,0.3494,0.3546,0.3547,0.3586,0.3613,0.3643,0.3666,0.3666,0.3673,0.3667,0.3647,0.3643,0.3675,0.3652,0.3626,0.3694,0.3642,0.3647,0.3715,0.3729,0.374,0.3818,0.3584,0,0,0,0,0,0.3499,0.3535,0.3572,0.3601,0.3622,0.3644,0.3662,0.3664,0.3677,0.3679,0.3674,0.3675,0.3697,0.3696,0.3704,0.3733,0.377,0.3764,0.3776,0.3786,0.3849,0.393,0.3956,0.3677,0.3677,0.3677,0,0,0.3496,0.3532,0.3549,0.36,0.3626,0.3655,0.3651,0.3683,0.3708,0.3674,0.3707,0.3715,0.3715,0.3757,0.3769,0.3738,0.3883,0.3792,0.38,0.386,0.3938,0.3966,0.399,0.368,0.3679,0.3679,0,0,0.3507,0.3546,0.3573,0.3606,0.365,0.367,0.3681,0.3715,0.3735,0.3762,0.3765,0.382,0.3805,0.3858,0.3871,0.3956,0.3946,0.3931,0.4049,0.4126,0.415,0.4172,0.4251,0.4279,0.3931,0.3931,0.3931,0,0.3494,0.354,0.3585,0.362,0.3653,0.3678,0.3706,0.3741,0.3769,0.3815,0.3775,0.3878,0.3875,0.3989,0.4028,0.3991,0.4022,0.399,0.4144,0.4167,0.4188,0.4263,0.4293,0.3937,0.3936,0.3935,0.3935,0,0.3517,0.356,0.3587,0.3641,0.368,0.3715,0.3768,0.381,0.3831,0.3875,0.3985,0.4014,0.4085,0.4092,0.4089,0.4248,0.4218,0.4152,0.4113,0.4223,0.4294,0.4323,0.3945,0.3943,0.3941,0.394,0,0,0.347,0.3578,0.3584,0.3636,0.3697,0.3743,0.3803,0.3893,0.3968,0.4019,0.413,0.4227,0.4276,0.4304,0.4321,0.4411,0.4585,0.4358,0.4359,0.4447,0.4764,0.466,0.4681,0.4529,0.4534,0.4539,0.4752,0,0.3468,0.3549,0.3592,0.3674,0.3735,0.3793,0.3861,0.3949,0.4016,0.4128,0.4237,0.4333,0.4341,0.4389,0.4495,0.4558,0.4669,0.4536,0.4638,0.4643,0.4545,0.4715,0.4503,0.4667,0.478,0.4785,0.4789,0,0.3478,0.3537,0.3619,0.3748,0.3777,0.3826,0.3972,0.4028,0.4189,0.4242,0.4384,0.4451,0.4649,0.4595,0.4835,0.4739,0.4798,0.484,0.4846,0.4749,0.4596,0.4576,0.4716,0.4511,0.4834,0.483,0.4827,0,0.3484,0.357,0.365,0.3689,0.3817,0.3879,0.394,0.4082,0.4138,0.4333,0.4389,0.4614,0.4693,0.4847,0.4955,0.4904,0.5177,0.5087,0.5069,0.506,0.4909,0.4877,0.4879,0.5283,0.5283,0.5282,0.5282,0,0.3508,0.3581,0.3668,0.3732,0.3798,0.3906,0.3993,0.4085,0.4219,0.43,0.4461,0.4558,0.4755,0.4908,0.5022,0.5153,0.5231,0.5171,0.5137,0.4934,0.4903,0.4736,0.4662,0.529,0.5288,0.5287,0.5286,0,0.3537,0.3603,0.3685,0.3795,0.3817,0.3872,0.3946,0.4019,0.4158,0.4262,0.4324,0.4537,0.4745,0.4933,0.5163,0.5192,0.5193,0.536,0.5117,0.505,0.4809,0.4748,0.4719,0.458,0.5406,0.5405,0.5405,0,0.357,0.3625,0.3683,0.368,0.3727,0.3788,0.3821,0.3958,0.4028,0.4235,0.4298,0.4525,0.4662,0.4977,0.5115,0.5326,0.5156,0.5194,0.5073,0.4839,0.4748,0.4603,0.4477,0.492,0.4915,0.4912,0.4909,0,0.3575,0.3589,0.3615,0.3603,0.3628,0.3629,0.371,0.3745,0.392,0.403,0.4181,0.4314,0.4623,0.4735,0.4985,0.5083,0.4905,0.5118,0.4944,0.4467,0.4247,0.4075,0.4737,0.4875,0.4878,0.488,0.4882,0.4884,0.3505,0.348,0.3473,0.3461,0.3469,0.3451,0.342,0.3539,0.3607,0.3749,0.3983,0.4144,0.4365,0.4698,0.4753,0.4643,0.4701,0.45,0.4486,0.4391,0.4136,0.4735,0.4765,0.4768,0.477,0.4772,0.4774,0,0.3337,0.3322,0.3318,0.327,0.3231,0.3286,0.3313,0.3271,0.3303,0.3552,0.3685,0.391,0.4006,0.4163,0.4175,0.4026,0.3891,0.3889,0.3625,0.3562,0.4154,0.4002,0.3781,0.3781,0.3781,0.3781,0.3781,0.3782,0.3217,0.3135,0.3147,0.3019,0.3009,0.288,0.2852,0.2849,0.2972,0.3083,0.3246,0.3468,0.369,0.3734,0.3553,0.3482,0.3202,0.3085,0.3088,0.3458,0.3512,0.3562,0.3399,0.3055,0.3054,0.233,0.2324,0.232]},{"header":{"parameterUnit":"m.s-1","parameterCategory":2,"la1":30.2991,"la2":30.254,"lo1":-89.0895,"lo2":-89.0444,"dy":0.0017,"dx":0.0017,"nx":28,"ny":28,"refTime":"2025-01-26T03:00:00:Z","depth":"0","parameterNumber":3,"parameterNumberName":"V-component_of_CURRENTS"},"data":[0,0,0,0,0,0,0,0,0,0,0,0,0,0,0,0,0,0,0,0,0,0,0,0,0,0,0,0,0,0,0,0,0,0,0,0,0,0,0,0,0,0,0,0,0,0,0,0,0,0,0,0,0,0,0,0,0,0,-0.0055,-0.0055,0,-0.0114,-0.0115,-0.0115,-0.0166,-0.0166,-0.0167,-0.0167,-0.0261,-0.0263,-0.0265,0,0,0,0,0,0,0,0,0,0,0,0,0,-0.0015,-0.0015,-0.0055,-0.0055,-0.0056,-0.0114,-0.0115,-0.0116,-0.0166,-0.0166,-0.0167,-0.0167,-0.026,-0.0263,-0.0265,0,0,0,0,0,0,0,0,0,0,0,0,0,-0.0051,-0.0016,-0.0055,-0.0086,-0.0089,-0.0113,-0.0115,-0.0116,-0.0166,-0.0166,-0.0167,-0.0167,-0.0259,-0.0262,-0.0266,-0.0275,0,0,-0.0276,-0.0277,0,0,0,0,0,0,0,0,-0.0049,-0.0053,-0.0081,-0.0084,-0.0087,-0.0131,-0.0135,-0.017,-0.0166,-0.0139,-0.0167,-0.0167,-0.0219,-0.0225,-0.0238,-0.028,-0.0284,-0.0276,-0.0278,-0.0279,-0.028,0,0,0,0,0,0,0,-0.0046,-0.0051,-0.008,-0.0081,-0.0085,-0.0107,-0.0113,-0.0142,-0.0178,-0.0141,-0.0145,-0.0147,-0.0221,-0.0235,-0.0241,-0.0285,-0.0276,-0.0279,-0.0281,-0.0282,-0.0334,-0.0334,0,0,0,0,0,0,-0.0032,-0.0048,-0.0078,-0.0082,-0.0067,-0.0107,-0.0114,-0.0118,-0.0177,-0.0185,-0.0147,-0.015,-0.0229,-0.0237,-0.0244,-0.0223,-0.0279,-0.0282,-0.0284,-0.0335,-0.0334,-0.0334,0,0,0,0,0,0,-0.0031,-0.0034,-0.0076,-0.0064,-0.0071,-0.0107,-0.0112,-0.0119,-0.013,-0.018,-0.019,-0.0149,-0.023,-0.024,-0.0262,-0.0228,-0.0284,-0.0287,-0.0336,-0.0335,-0.0334,-0.0204,0,0,0,0,0,0,-0.003,-0.0034,-0.0029,-0.0063,-0.0071,-0.008,-0.0111,-0.012,-0.013,-0.0134,-0.0185,-0.0195,-0.0231,-0.0257,-0.0265,-0.0234,-0.0289,-0.0336,-0.0335,-0.0334,-0.0209,-0.0198,-0.019,0,0,0,0,0,-0.0028,-0.0016,-0.0028,-0.0031,-0.0064,-0.0079,-0.0084,-0.0114,-0.0129,-0.0127,-0.0162,-0.0193,-0.0256,-0.0259,-0.0269,-0.0238,-0.0337,-0.0336,-0.0334,-0.0213,-0.02,-0.019,0,0,0,0,0,0,0.0006,-0.0021,-0.0035,-0.0031,-0.0049,-0.0086,-0.0085,-0.0105,-0.0132,-0.0134,-0.0187,-0.0198,-0.0205,-0.0246,-0.0247,-0.0253,-0.0301,-0.0302,-0.0206,-0.0195,-0.0185,-0.0088,-0.0292,0,0,0,0,0,0.0017,0.0017,-0.0012,-0.0007,-0.0014,-0.0048,-0.0057,-0.0074,-0.0102,-0.0114,-0.0151,-0.0188,-0.0208,-0.022,-0.0252,-0.0255,-0.0249,-0.0244,-0.0234,-0.0226,-0.0155,-0.012,-0.0098,-0.0329,-0.0329,-0.0329,0,0,0.0032,0.0018,0.0018,0.0,-0.0018,-0.0011,-0.0055,-0.0059,-0.0042,-0.012,-0.0115,-0.0157,-0.0203,-0.0203,-0.0209,-0.0231,-0.0169,-0.0224,-0.0216,-0.0149,-0.0116,-0.0093,-0.0072,-0.0329,-0.0329,-0.0329,0,0,0.0067,0.005,0.0063,0.0053,0.0037,0.0022,0.0025,-0.0006,-0.0009,-0.0017,-0.0058,-0.0056,-0.0126,-0.0114,-0.0126,-0.008,-0.0121,-0.0128,0.0007,0.0039,0.0061,0.0079,0.0078,0.0096,-0.012,-0.012,-0.0119,0,0.0088,0.0106,0.0066,0.0078,0.0094,0.0043,0.0077,0.0062,0.0031,0.0073,-0.0002,0.0006,-0.006,0.0019,0.0013,-0.0047,-0.0059,-0.0031,0.0059,0.0077,0.0095,0.0089,0.0108,-0.0113,-0.0114,-0.0115,-0.0115,0,0.0135,0.0151,0.016,0.0165,0.0172,0.0192,0.0176,0.0195,0.0176,0.0181,0.0241,0.0174,0.0206,0.0153,0.0086,0.0185,0.0124,0.0066,0.0045,0.0127,0.0113,0.013,-0.0104,-0.0106,-0.0108,-0.011,0,0,0.0192,0.0196,0.0202,0.0249,0.023,0.0263,0.0298,0.0361,0.0456,0.0404,0.0535,0.0471,0.0471,0.046,0.0393,0.04,0.0456,0.0282,0.0281,0.031,0.0504,0.0438,0.0448,0.0402,0.0406,0.041,0.0433,0,0.0253,0.032,0.0296,0.0388,0.0439,0.0428,0.0493,0.0544,0.0567,0.0669,0.0655,0.0719,0.0575,0.0603,0.0597,0.0498,0.0513,0.0456,0.0398,0.0398,0.0353,0.0472,0.042,0.0436,0.0449,0.0452,0.0454,0,0.0329,0.037,0.047,0.0572,0.0597,0.0648,0.0809,0.0853,0.0961,0.0988,0.1063,0.1033,0.1073,0.0917,0.0868,0.0827,0.0702,0.0606,0.0603,0.0531,0.0367,0.036,0.0465,0.0191,0.0479,0.0477,0.0475,0,0.0461,0.0515,0.0621,0.0643,0.0727,0.0814,0.0872,0.0982,0.1076,0.1215,0.1299,0.1335,0.1353,0.1247,0.102,0.0951,0.0938,0.0818,0.0663,0.0653,0.0604,0.0584,0.0478,0.0828,0.0828,0.0828,0.0828,0,0.0577,0.0675,0.0703,0.0777,0.0945,0.0959,0.1159,0.1229,0.1364,0.1515,0.1488,0.1598,0.1428,0.1371,0.1157,0.0977,0.1053,0.0753,0.069,0.0636,0.062,0.0371,0.0248,0.0829,0.0829,0.0829,0.0829,0,0.0743,0.0748,0.0885,0.0979,0.1019,0.1154,0.1297,0.1451,0.1542,0.1739,0.179,0.1812,0.1731,0.1543,0.1359,0.1152,0.0845,0.0892,0.0824,0.0754,0.034,0.0228,0.0156,0.0079,0.0759,0.0758,0.0757,0,0.085,0.0927,0.1032,0.1114,0.1168,0.1326,0.1451,0.155,0.1693,0.1859,0.1977,0.1965,0.1983,0.1711,0.1359,0.1065,0.0819,0.0801,0.068,0.0377,0.0205,0.012,0.0054,0.0637,0.0635,0.0634,0.0633,0,0.1041,0.1063,0.1155,0.129,0.1423,0.156,0.1726,0.1855,0.1986,0.2125,0.2263,0.229,0.2046,0.1745,0.1342,0.1088,0.0626,0.076,0.0488,0.0177,0.0046,-0.0082,0.0523,0.062,0.0622,0.0623,0.0623,0.0624,0.1173,0.1248,0.132,0.1464,0.1598,0.1753,0.1883,0.2046,0.2233,0.2429,0.245,0.2526,0.2065,0.1513,0.1159,0.0435,0.0517,0.0207,0.0117,0.0073,-0.0044,0.0528,0.0519,0.052,0.0521,0.0521,0.0522,0,0.1271,0.1332,0.1479,0.1616,0.1759,0.1806,0.2031,0.2153,0.2345,0.2549,0.2653,0.2461,0.1881,0.1262,0.033,-0.0122,-0.0284,-0.038,-0.0529,-0.0547,-0.0014,-0.007,-0.0255,-0.0255,-0.0255,-0.0254,-0.0254,-0.0254,0.1324,0.1431,0.1481,0.1692,0.1804,0.1976,0.2091,0.227,0.2441,0.261,0.2666,0.2717,0.2138,0.0546,-0.0546,-0.0767,-0.1069,-0.1116,-0.1217,-0.093,-0.0883,-0.084,-0.0925,-0.1286,-0.1287,-0.1729,-0.1734,-0.1738]}],[{"header":{"parameterUnit":"m.s-1","parameterCategory":2,"la1":30.2991,"la2":30.254,"lo1":-89.0895,"lo2":-89.0444,"dy":0.0017,"dx":0.0017,"nx":28,"ny":28,"refTime":"2025-01-26T03:00:00:Z","depth":"2","parameterNumber":2,"parameterNumberName":"U-component_of_CURRENTS"},"data":[0,0,0,0,0,0,0,0,0,0,0,0,0,0,0,0,0,0,0,0,0,0,0,0,0,0,0,0,0,0,0,0,0,0,0,0,0,0,0,0,0,0,0,0,0,0,0,0,0,0,0,0,0,0,0,0,0,0,0.2809,0.281,0,0.2865,0.2865,0.2866,0.2892,0.2892,0.2892,0.2892,0.29,0.2901,0.2901,0,0,0,0,0,0,0,0,0,0,0,0,0,0.2718,0.272,0.2809,0.281,0.2811,0.2865,0.2865,0.2866,0.2892,0.2892,0.2892,0.2892,0.29,0.2901,0.2901,0,0,0,0,0,0,0,0,0,0,0,0,0,0.2764,0.272,0.2809,0.283,0.2833,0.2864,0.2865,0.2866,0.2892,0.2892,0.2892,0.2892,0.29,0.2901,0.2901,0.2902,0,0,0.2902,0.2902,0,0,0,0,0,0,0,0,0.2761,0.2767,0.2827,0.2829,0.2832,0.2872,0.2836,0.2876,0.2892,0.2869,0.2892,0.2892,0.2887,0.2888,0.2898,0.2903,0.2903,0.2902,0.2902,0.2902,0.2902,0,0,0,0,0,0,0,0.2758,0.2764,0.283,0.2827,0.2831,0.2835,0.2841,0.2844,0.2876,0.2871,0.2873,0.288,0.2888,0.2898,0.2899,0.2903,0.2902,0.2902,0.2902,0.2903,0.2965,0.2967,0,0,0,0,0,0,0.2753,0.2762,0.2829,0.2832,0.2796,0.2836,0.2844,0.2858,0.2877,0.288,0.288,0.2881,0.2898,0.2898,0.2899,0.2961,0.2902,0.2903,0.2903,0.2964,0.2966,0.2967,0,0,0,0,0,0,0.2751,0.2759,0.2826,0.2798,0.2807,0.2838,0.2854,0.286,0.2884,0.2884,0.2887,0.2901,0.2898,0.2899,0.2919,0.2959,0.2903,0.2903,0.2962,0.2964,0.2967,0.3045,0,0,0,0,0,0,0.2748,0.2758,0.2777,0.2798,0.2809,0.2862,0.2855,0.2861,0.2888,0.289,0.2903,0.2903,0.2898,0.2919,0.2919,0.2958,0.2903,0.296,0.2963,0.2966,0.3041,0.305,0.3058,0,0,0,0,0,0.2745,0.2769,0.2777,0.2786,0.283,0.2863,0.287,0.289,0.2889,0.291,0.2916,0.2903,0.2937,0.292,0.292,0.296,0.2959,0.2962,0.2966,0.3037,0.3048,0.3058,0,0,0,0,0,0,0.2742,0.2775,0.2784,0.2818,0.2846,0.2868,0.2891,0.2899,0.2921,0.2927,0.2917,0.2918,0.2959,0.2942,0.2924,0.2986,0.2948,0.2952,0.3002,0.3013,0.3021,0.3054,0.2903,0,0,0,0,0,0.2749,0.277,0.2805,0.2829,0.2849,0.2871,0.2889,0.2908,0.2925,0.2936,0.2938,0.2948,0.2971,0.2977,0.2992,0.3015,0.3032,0.3042,0.3051,0.3058,0.3085,0.3173,0.3193,0.2978,0.2978,0.2978,0,0,0.2747,0.2772,0.2781,0.2829,0.2851,0.2883,0.2883,0.2922,0.2948,0.2931,0.2964,0.2981,0.2986,0.3026,0.3041,0.3016,0.3117,0.3062,0.3069,0.3093,0.3179,0.32,0.3219,0.298,0.298,0.298,0,0,0.2749,0.2786,0.2804,0.2835,0.2882,0.2905,0.2919,0.2955,0.2977,0.3005,0.3016,0.306,0.3061,0.3098,0.3108,0.317,0.3167,0.3167,0.323,0.3314,0.3333,0.3351,0.3355,0.3373,0.3162,0.3162,0.3163,0,0.2748,0.2785,0.2814,0.2847,0.2878,0.2914,0.2949,0.2977,0.3012,0.305,0.3022,0.311,0.3102,0.3194,0.321,0.3194,0.3216,0.319,0.3328,0.3346,0.3362,0.3364,0.3382,0.3167,0.3166,0.3166,0.3165,0,0.2767,0.2803,0.2821,0.2872,0.2909,0.2952,0.2997,0.3043,0.3065,0.3098,0.3192,0.3208,0.3271,0.327,0.3249,0.3374,0.334,0.3338,0.3307,0.3389,0.3384,0.3401,0.3173,0.3171,0.317,0.3169,0,0,0.2741,0.282,0.2826,0.2864,0.2937,0.2971,0.3032,0.3114,0.3184,0.3222,0.3308,0.3361,0.3406,0.3423,0.3436,0.3491,0.3591,0.3462,0.3465,0.3473,0.3736,0.3629,0.3636,0.3625,0.363,0.3634,0.367,0,0.2751,0.2816,0.2853,0.2917,0.2963,0.3029,0.3085,0.3165,0.3233,0.3322,0.3388,0.3465,0.3454,0.3498,0.3569,0.3595,0.3649,0.3578,0.365,0.3651,0.3554,0.3658,0.3382,0.3387,0.3687,0.3689,0.3691,0,0.2759,0.2808,0.2873,0.297,0.2997,0.3048,0.3188,0.3244,0.3382,0.3432,0.3556,0.36,0.371,0.367,0.3805,0.3766,0.377,0.3772,0.3774,0.3669,0.3579,0.3362,0.3407,0.372,0.3718,0.3716,0.3714,0,0.2742,0.2822,0.288,0.2912,0.3022,0.3085,0.316,0.3297,0.3378,0.3525,0.3593,0.3739,0.379,0.3879,0.3888,0.3865,0.3998,0.3961,0.3869,0.3857,0.3634,0.3597,0.4071,0.4071,0.4071,0.4071,0.4071,0,0.2748,0.2796,0.2886,0.2928,0.3013,0.3096,0.3228,0.3314,0.3471,0.3555,0.3668,0.3758,0.385,0.3925,0.3945,0.3962,0.4058,0.3911,0.3891,0.3645,0.361,0.3913,0.3894,0.4072,0.4072,0.4071,0.4071,0,0.2727,0.2781,0.2856,0.2975,0.301,0.3082,0.3253,0.3344,0.3489,0.3604,0.3646,0.3791,0.3862,0.3932,0.402,0.3999,0.4039,0.4013,0.3676,0.3618,0.3814,0.3799,0.3925,0.3922,0.392,0.3918,0.3916,0,0.2735,0.2765,0.2872,0.2907,0.2969,0.3088,0.3157,0.3329,0.3414,0.3609,0.3636,0.3758,0.3797,0.3899,0.3882,0.39,0.398,0.3637,0.3557,0.3848,0.3816,0.3804,0.3792,0.3263,0.3256,0.325,0.3246,0,0.272,0.2749,0.2796,0.2864,0.2936,0.3029,0.3146,0.3206,0.3364,0.3447,0.353,0.359,0.3677,0.3568,0.3595,0.3577,0.3619,0.3522,0.3963,0.3346,0.3228,0.3194,0.3204,0.3195,0.3201,0.3204,0.3207,0.3209,0.2673,0.2712,0.2738,0.2807,0.2866,0.2916,0.2927,0.3027,0.3092,0.3124,0.3289,0.3261,0.332,0.3211,0.3154,0.3116,0.3347,0.321,0.3226,0.3248,0.3169,0.3055,0.297,0.2973,0.2977,0.2979,0.2982,0,0.2575,0.2635,0.2681,0.2718,0.2703,0.2804,0.2851,0.2804,0.2766,0.285,0.2872,0.2654,0.2626,0.2706,0.2581,0.2609,0.2574,0.2506,0.2435,0.2489,0.2535,0.2417,0.202,0.2016,0.2013,0.201,0,0,0.2521,0.25,0.255,0.2501,0.255,0.2501,0.249,0.2408,0.2412,0.2298,0.2266,0.2444,0.2604,0.224,0.2235,0.2104,0.2268,0.2029,0.2808,0.2776,0.2817,0.2959,0.2841,0,0,0,0,0]},{"header":{"parameterUnit":"m.s-1","parameterCategory":2,"la1":30.2991,"la2":30.254,"lo1":-89.0895,"lo2":-89.0444,"dy":0.0017,"dx":0.0017,"nx":28,"ny":28,"refTime":"2025-01-26T03:00:00:Z","depth":"2","parameterNumber":3,"parameterNumberName":"V-component_of_CURRENTS"},"data":[0,0,0,0,0,0,0,0,0,0,0,0,0,0,0,0,0,0,0,0,0,0,0,0,0,0,0,0,0,0,0,0,0,0,0,0,0,0,0,0,0,0,0,0,0,0,0,0,0,0,0,0,0,0,0,0,0,0,0.0068,0.0067,0,0.0016,0.0015,0.0015,-0.0029,-0.003,-0.003,-0.003,-0.0099,-0.0101,-0.0102,0,0,0,0,0,0,0,0,0,0,0,0,0,0.0079,0.0079,0.0068,0.0067,0.0067,0.0016,0.0015,0.0014,-0.0029,-0.003,-0.003,-0.003,-0.0099,-0.0101,-0.0103,0,0,0,0,0,0,0,0,0,0,0,0,0,0.0054,0.008,0.0068,0.004,0.0037,0.0016,0.0015,0.0014,-0.0029,-0.003,-0.003,-0.0031,-0.0098,-0.0101,-0.0103,-0.0107,0,0,-0.011,-0.0111,0,0,0,0,0,0,0,0,0.0056,0.0054,0.0045,0.0042,0.0039,0.0001,-0.0006,-0.0027,-0.0029,-0.0006,-0.003,-0.0031,-0.0066,-0.0071,-0.0082,-0.0111,-0.0114,-0.011,-0.0111,-0.0112,-0.0113,0,0,0,0,0,0,0,0.0058,0.0055,0.0046,0.0044,0.0041,0.0014,0.001,-0.001,-0.0034,-0.0008,-0.0011,-0.0013,-0.0068,-0.008,-0.0084,-0.0115,-0.011,-0.0112,-0.0113,-0.0114,-0.016,-0.016,0,0,0,0,0,0,0.0071,0.0057,0.0047,0.0044,0.0048,0.0014,0.001,0.0012,-0.0034,-0.004,-0.0013,-0.0015,-0.0075,-0.0081,-0.0086,-0.0086,-0.0112,-0.0115,-0.0116,-0.016,-0.016,-0.016,0,0,0,0,0,0,0.0071,0.0071,0.0049,0.005,0.0046,0.0015,0.0018,0.0011,0.0002,-0.0037,-0.0045,-0.0016,-0.0076,-0.0083,-0.0102,-0.0089,-0.0116,-0.0118,-0.016,-0.016,-0.016,-0.0089,0,0,0,0,0,0,0.0072,0.0071,0.0076,0.0052,0.0047,0.0047,0.0018,0.0011,0.0002,-0.0002,-0.0042,-0.0049,-0.0077,-0.0099,-0.0105,-0.0093,-0.012,-0.0161,-0.016,-0.016,-0.0092,-0.0087,-0.0082,0,0,0,0,0,0.0073,0.0091,0.0077,0.0075,0.0055,0.0048,0.0043,0.0017,0.0002,0.0005,-0.0027,-0.0048,-0.0101,-0.01,-0.0107,-0.0096,-0.0161,-0.016,-0.016,-0.0094,-0.0088,-0.0083,0,0,0,0,0,0,0.0102,0.0088,0.0072,0.0085,0.0069,0.0041,0.0043,0.0023,0.0,-0.0005,-0.0044,-0.0053,-0.0068,-0.0092,-0.009,-0.011,-0.0135,-0.0136,-0.0082,-0.0077,-0.0072,-0.0049,-0.0121,0,0,0,0,0,0.011,0.0118,0.0096,0.0106,0.0101,0.0071,0.0064,0.0046,0.0024,0.0013,-0.0015,-0.0046,-0.0072,-0.0081,-0.0109,-0.0115,-0.015,-0.0114,-0.0109,-0.0104,-0.0092,-0.0137,-0.0135,-0.0159,-0.0159,-0.0159,0,0,0.0125,0.0118,0.0122,0.0112,0.0097,0.0102,0.0066,0.0062,0.0065,0.0009,0.0006,-0.0031,-0.0071,-0.0082,-0.009,-0.0099,-0.0118,-0.0104,-0.01,-0.0089,-0.0136,-0.0134,-0.0132,-0.0158,-0.0158,-0.0158,0,0,0.0163,0.0152,0.017,0.0161,0.0144,0.0127,0.013,0.0104,0.0092,0.0081,0.004,0.0014,-0.002,-0.0045,-0.0063,-0.0047,-0.0095,-0.0059,-0.001,-0.0054,-0.0052,-0.0051,-0.0098,-0.0101,-0.0052,-0.0052,-0.0052,0,0.0181,0.0199,0.0174,0.0187,0.0187,0.0145,0.0163,0.0147,0.0118,0.0115,0.009,0.0037,-0.0001,-0.0011,-0.001,-0.0034,-0.0071,-0.0026,-0.0047,-0.0046,-0.0046,-0.0095,-0.0099,-0.0048,-0.0049,-0.0049,-0.0049,0,0.0227,0.0241,0.0253,0.0254,0.0251,0.026,0.0235,0.0231,0.0208,0.0187,0.0168,0.0112,0.0085,0.0063,0.0031,0.0017,-0.0013,-0.0038,-0.0057,-0.0039,-0.0092,-0.0098,-0.0043,-0.0045,-0.0046,-0.0047,0,0,0.0273,0.0284,0.0288,0.0303,0.0288,0.0295,0.0302,0.03,0.0316,0.0269,0.0278,0.0222,0.0188,0.0165,0.0116,0.0076,0.0035,0.0026,0.0022,-0.0013,-0.0068,-0.0082,-0.009,0.0004,0.0004,0.0003,-0.0106,0,0.0317,0.0364,0.0352,0.0394,0.0416,0.0386,0.0404,0.0393,0.0373,0.0369,0.0303,0.0287,0.0228,0.0213,0.0165,0.0068,0.0023,0.0067,-0.0087,-0.0091,-0.0099,-0.0096,-0.0058,-0.0151,-0.0113,-0.0114,-0.0115,0,0.0366,0.0392,0.0443,0.0475,0.0482,0.0499,0.0521,0.0533,0.051,0.0492,0.0458,0.0399,0.0339,0.0279,0.0137,0.0166,0.0061,-0.0022,-0.0028,-0.0066,-0.0116,-0.0163,-0.0164,-0.0126,-0.0125,-0.0124,-0.0123,0,0.0415,0.0457,0.0503,0.0511,0.0537,0.0558,0.0575,0.0573,0.0596,0.0569,0.0568,0.0486,0.0437,0.031,0.0144,0.0136,-0.0026,-0.0061,-0.0173,-0.0176,-0.0184,-0.0186,-0.0165,-0.0164,-0.0164,-0.0164,-0.0163,0,0.0462,0.0498,0.0534,0.0558,0.062,0.0621,0.0679,0.0682,0.0696,0.0727,0.0639,0.0637,0.0438,0.0322,0.0171,-0.0013,-0.0006,-0.0161,-0.0201,-0.016,-0.0158,-0.0167,-0.0166,-0.0168,-0.0167,-0.0166,-0.0166,0,0.0491,0.0515,0.0574,0.0623,0.0642,0.0687,0.0744,0.0786,0.0794,0.0828,0.082,0.0732,0.0589,0.0387,0.0165,0.0023,-0.015,-0.0221,-0.0159,-0.019,-0.0281,-0.0275,-0.0356,-0.0357,-0.0358,-0.0359,-0.036,0,0.0504,0.0539,0.0619,0.0652,0.067,0.0737,0.0782,0.0825,0.0877,0.0898,0.0919,0.0797,0.0741,0.0419,0.014,-0.0128,-0.0165,-0.0282,-0.0288,-0.0267,-0.0299,-0.0291,-0.0284,-0.0282,-0.0282,-0.0282,-0.0282,0,0.0517,0.0549,0.0594,0.0687,0.0741,0.0819,0.0896,0.0961,0.1017,0.1059,0.1106,0.1071,0.0763,0.0512,0.0128,-0.0053,-0.0233,-0.0293,-0.0292,-0.023,-0.0204,-0.0233,-0.0228,-0.0283,-0.0283,-0.0283,-0.0283,-0.0283,0.0518,0.0563,0.0636,0.0721,0.0791,0.0908,0.0991,0.109,0.121,0.1297,0.1249,0.1212,0.0892,0.043,0.011,-0.0239,-0.0235,-0.0352,-0.0349,-0.0347,-0.0309,-0.0285,-0.0373,-0.0374,-0.0374,-0.0374,-0.0375,0,0.0537,0.0595,0.0663,0.0785,0.0878,0.0921,0.1069,0.1167,0.1331,0.1394,0.1437,0.1154,0.0874,0.0515,0.0011,-0.0294,-0.0316,-0.0393,-0.0344,-0.0341,-0.0339,-0.0299,-0.0362,-0.0363,-0.0364,-0.0364,0,0,0.0545,0.0629,0.0683,0.0842,0.0929,0.1078,0.1178,0.1322,0.1416,0.1497,0.1486,0.1413,0.0989,0.063,0.0213,-0.0066,-0.0135,-0.0129,-0.0107,0.0003,0.0009,-0.0286,-0.0218,0,0,0,0,0]}],[{"header":{"parameterUnit":"m.s-1","parameterCategory":2,"la1":30.2991,"la2":30.254,"lo1":-89.0895,"lo2":-89.0444,"dy":0.0017,"dx":0.0017,"nx":28,"ny":28,"refTime":"2025-01-26T03:00:00:Z","depth":"4","parameterNumber":2,"parameterNumberName":"U-component_of_CURRENTS"},"data":[0,0,0,0,0,0,0,0,0,0,0,0,0,0,0,0,0,0,0,0,0,0,0,0,0,0,0,0,0,0,0,0,0,0,0,0,0,0,0,0,0,0,0,0,0,0,0,0,0,0,0,0,0,0,0,0,0,0,0.1757,0.1758,0,0.1824,0.1825,0.1825,0.1884,0.1885,0.1886,0.1887,0.1969,0.197,0.1972,0,0,0,0,0,0,0,0,0,0,0,0,0,0.1663,0.1664,0.1757,0.1758,0.1759,0.1824,0.1825,0.1825,0.1884,0.1885,0.1886,0.1887,0.1969,0.197,0.1972,0,0,0,0,0,0,0,0,0,0,0,0,0,0.1711,0.1664,0.1756,0.1798,0.1803,0.1824,0.1825,0.1825,0.1884,0.1885,0.1886,0.1888,0.1968,0.197,0.1972,0.1956,0,0,0.1978,0.1979,0,0,0,0,0,0,0,0,0.1708,0.1714,0.1791,0.1795,0.18,0.185,0.1822,0.1871,0.1883,0.185,0.1887,0.1888,0.1931,0.1936,0.1942,0.196,0.1964,0.1978,0.1979,0.198,0.1981,0,0,0,0,0,0,0,0.1705,0.1712,0.178,0.1792,0.1798,0.1808,0.1816,0.1831,0.188,0.1853,0.1858,0.1869,0.1934,0.194,0.1944,0.1965,0.1978,0.198,0.1981,0.1982,0.2098,0.21,0,0,0,0,0,0,0.1702,0.1709,0.1778,0.1783,0.176,0.1809,0.1818,0.183,0.188,0.1889,0.1868,0.1872,0.1935,0.1942,0.1947,0.204,0.198,0.1982,0.1983,0.2096,0.2098,0.21,0,0,0,0,0,0,0.17,0.1707,0.1776,0.1749,0.1759,0.1809,0.1822,0.1831,0.1879,0.1892,0.1901,0.1913,0.1937,0.1944,0.2,0.2039,0.1983,0.1985,0.2094,0.2097,0.2099,0.2155,0,0,0,0,0,0,0.1697,0.1706,0.1729,0.1749,0.1761,0.1814,0.1821,0.1831,0.1882,0.1889,0.1932,0.1939,0.1938,0.1998,0.2002,0.2041,0.1986,0.2091,0.2095,0.2098,0.2151,0.2159,0.2167,0,0,0,0,0,0.1693,0.1711,0.1729,0.1739,0.1785,0.1815,0.1823,0.186,0.1884,0.1908,0.1944,0.194,0.2024,0.2001,0.2006,0.2046,0.209,0.2094,0.2098,0.2147,0.2158,0.2167,0,0,0,0,0,0,0.1681,0.1719,0.174,0.177,0.1805,0.1827,0.1857,0.1882,0.1928,0.1949,0.196,0.1969,0.2034,0.2033,0.2007,0.2091,0.2057,0.2063,0.2093,0.2103,0.2111,0.2119,0.1988,0,0,0,0,0,0.1688,0.1718,0.1751,0.1781,0.18,0.1836,0.1861,0.189,0.1925,0.1949,0.198,0.2015,0.2047,0.2071,0.2096,0.2137,0.2136,0.2169,0.2177,0.2183,0.2196,0.2229,0.2241,0.2114,0.2114,0.2114,0,0,0.1694,0.1719,0.1738,0.1782,0.1812,0.1845,0.1855,0.1905,0.1945,0.1949,0.2022,0.2047,0.2066,0.2118,0.2146,0.2127,0.2218,0.2189,0.2194,0.2203,0.2235,0.2247,0.2258,0.2117,0.2116,0.2116,0,0,0.1705,0.1743,0.1768,0.18,0.1855,0.1878,0.1902,0.1951,0.1989,0.2049,0.2068,0.2124,0.2167,0.2193,0.2207,0.2275,0.2261,0.2286,0.2332,0.2364,0.2375,0.2384,0.2387,0.2396,0.2287,0.2287,0.2287,0,0.1715,0.1749,0.1781,0.1813,0.1849,0.1897,0.1936,0.1974,0.204,0.2075,0.2085,0.2181,0.2202,0.2265,0.2294,0.2295,0.2299,0.2291,0.2374,0.2383,0.2392,0.2393,0.2402,0.229,0.229,0.229,0.2289,0,0.1735,0.1778,0.1797,0.1855,0.1896,0.194,0.1994,0.205,0.2103,0.2139,0.2228,0.2263,0.2322,0.2337,0.2338,0.2415,0.2393,0.238,0.2346,0.2408,0.2405,0.2414,0.2295,0.2294,0.2293,0.2292,0,0,0.1714,0.1796,0.1807,0.1843,0.1928,0.1957,0.2035,0.2107,0.2165,0.2234,0.2303,0.2375,0.241,0.243,0.2447,0.2477,0.254,0.2462,0.2462,0.2458,0.2597,0.2458,0.2453,0.2542,0.2544,0.2546,0.2566,0,0.1726,0.1787,0.1831,0.1902,0.194,0.2012,0.2076,0.2153,0.2222,0.2298,0.2357,0.2431,0.2439,0.2483,0.252,0.2543,0.2568,0.2535,0.2544,0.2544,0.2407,0.2461,0.2553,0.2572,0.2574,0.2576,0.2577,0,0.1725,0.1772,0.1841,0.1932,0.1957,0.2011,0.2127,0.2191,0.2302,0.2359,0.2448,0.2493,0.2581,0.2565,0.2643,0.2623,0.2625,0.2624,0.2624,0.2483,0.2421,0.2502,0.2592,0.2591,0.2589,0.2588,0.2588,0,0.168,0.1775,0.1833,0.1866,0.1975,0.203,0.2102,0.2218,0.2278,0.2411,0.247,0.2568,0.2632,0.2664,0.2698,0.2678,0.2751,0.2715,0.2585,0.2574,0.2667,0.2657,0.2759,0.2759,0.2759,0.2758,0.2758,0,0.1654,0.1704,0.1823,0.1848,0.1924,0.2021,0.2105,0.2195,0.2318,0.238,0.2508,0.2563,0.2664,0.2717,0.2721,0.2686,0.2778,0.2603,0.2578,0.2688,0.2681,0.2672,0.2662,0.2759,0.2759,0.2759,0.2759,0,0.158,0.1665,0.1729,0.1855,0.1899,0.1957,0.2089,0.2139,0.2292,0.2379,0.243,0.2582,0.2653,0.2723,0.2772,0.2702,0.2687,0.2648,0.2766,0.2746,0.2475,0.2468,0.2486,0.2481,0.2477,0.2474,0.2472,0,0.1539,0.157,0.1703,0.1739,0.1798,0.1894,0.1947,0.2106,0.2159,0.2359,0.2383,0.2522,0.2598,0.256,0.2647,0.2647,0.2619,0.2586,0.2526,0.2477,0.2452,0.2451,0.2449,0.2465,0.2464,0.2463,0.2462,0,0.1446,0.1511,0.1556,0.1633,0.17,0.1756,0.1855,0.1885,0.2059,0.2214,0.2278,0.2329,0.2405,0.2451,0.2484,0.2476,0.2594,0.2544,0.2551,0.2494,0.2453,0.2431,0.2434,0.2449,0.2451,0.2452,0.2453,0,0.1367,0.1379,0.1444,0.1502,0.1577,0.1602,0.1671,0.1738,0.182,0.2055,0.2062,0.2224,0.2363,0.2363,0.2388,0.2385,0.2338,0.2248,0.2269,0.2285,0.2215,0.2132,0.2016,0,0,0,0,0,0.1277,0.1276,0.1305,0.1356,0.1423,0.1475,0.1595,0.1673,0.185,0.1839,0.1951,0.2014,0.2077,0.2164,0.2119,0.2297,0.2344,0.2234,0.2249,0.2374,0.239,0.2329,0,0,0,0,0,0,0.121,0.1235,0.125,0.1217,0.1234,0.1291,0.1371,0.1493,0.1504,0.1697,0.1743,0.1888,0.1981,0.2078,0.2077,0.2103,0.207,0.234,0.2334,0.2365,0.238,0.2392,0.2335,0,0,0,0,0]},{"header":{"parameterUnit":"m.s-1","parameterCategory":2,"la1":30.2991,"la2":30.254,"lo1":-89.0895,"lo2":-89.0444,"dy":0.0017,"dx":0.0017,"nx":28,"ny":28,"refTime":"2025-01-26T03:00:00:Z","depth":"4","parameterNumber":3,"parameterNumberName":"V-component_of_CURRENTS"},"data":[0,0,0,0,0,0,0,0,0,0,0,0,0,0,0,0,0,0,0,0,0,0,0,0,0,0,0,0,0,0,0,0,0,0,0,0,0,0,0,0,0,0,0,0,0,0,0,0,0,0,0,0,0,0,0,0,0,0,0.0074,0.0074,0,0.0042,0.0041,0.0041,0.0016,0.0016,0.0016,0.0015,-0.0032,-0.0033,-0.0034,0,0,0,0,0,0,0,0,0,0,0,0,0,0.0076,0.0076,0.0074,0.0074,0.0073,0.0042,0.0041,0.0041,0.0016,0.0016,0.0016,0.0015,-0.0031,-0.0033,-0.0034,0,0,0,0,0,0,0,0,0,0,0,0,0,0.0062,0.0077,0.0074,0.0058,0.0056,0.0042,0.0041,0.0041,0.0016,0.0016,0.0016,0.0015,-0.0031,-0.0032,-0.0034,-0.004,0,0,-0.0039,-0.004,0,0,0,0,0,0,0,0,0.0063,0.0062,0.006,0.0059,0.0057,0.0033,0.0025,0.0013,0.0016,0.003,0.0015,0.0015,-0.0011,-0.0014,-0.002,-0.0042,-0.0044,-0.0039,-0.004,-0.0041,-0.0042,0,0,0,0,0,0,0,0.0064,0.0063,0.006,0.006,0.0058,0.0039,0.0037,0.0023,0.0011,0.0029,0.0027,0.0025,-0.0012,-0.0019,-0.0022,-0.0044,-0.0039,-0.0041,-0.0042,-0.0042,-0.0082,-0.0082,0,0,0,0,0,0,0.0072,0.0064,0.0061,0.0059,0.006,0.004,0.0037,0.004,0.0011,0.0007,0.0026,0.0024,-0.0016,-0.002,-0.0024,-0.0027,-0.0041,-0.0043,-0.0044,-0.0082,-0.0082,-0.0082,0,0,0,0,0,0,0.0072,0.0072,0.0063,0.0061,0.0059,0.004,0.0044,0.004,0.0035,0.0009,0.0004,0.0025,-0.0016,-0.0021,-0.0035,-0.0029,-0.0043,-0.0045,-0.0082,-0.0082,-0.0082,-0.0036,0,0,0,0,0,0,0.0073,0.0073,0.0078,0.0062,0.0059,0.0062,0.0044,0.004,0.0035,0.0033,0.0007,0.0002,-0.0017,-0.0032,-0.0036,-0.0032,-0.0046,-0.0082,-0.0082,-0.0082,-0.0038,-0.0035,-0.0032,0,0,0,0,0,0.0073,0.0088,0.0078,0.0078,0.0067,0.0063,0.006,0.0044,0.0035,0.0038,0.0017,0.0003,-0.0036,-0.0033,-0.0038,-0.0034,-0.0082,-0.0082,-0.0082,-0.0039,-0.0036,-0.0033,0,0,0,0,0,0,0.0094,0.0086,0.0076,0.0087,0.0077,0.0059,0.0062,0.0049,0.0034,0.0032,0.0005,-0.0002,-0.0013,-0.0031,-0.0027,-0.0047,-0.0062,-0.0063,-0.0028,-0.0025,-0.0022,-0.0016,-0.0048,0,0,0,0,0,0.01,0.0108,0.0093,0.0102,0.0099,0.008,0.0076,0.0065,0.005,0.0043,0.0025,0.0002,-0.0018,-0.0026,-0.0046,-0.0053,-0.0087,-0.0055,-0.0053,-0.005,-0.005,-0.0108,-0.0111,-0.0082,-0.0082,-0.0082,0,0,0.0112,0.0108,0.0112,0.0107,0.0098,0.0102,0.0077,0.0076,0.0077,0.0041,0.0039,0.0011,-0.0019,-0.003,-0.0036,-0.0042,-0.0074,-0.005,-0.0048,-0.0049,-0.0109,-0.0112,-0.0114,-0.0083,-0.0083,-0.0083,0,0,0.014,0.0134,0.0149,0.0143,0.0133,0.0121,0.0123,0.0107,0.0097,0.009,0.0059,0.0035,0.0015,-0.0012,-0.0027,-0.0022,-0.006,-0.0026,-0.0004,-0.0061,-0.0064,-0.0067,-0.0101,-0.0108,-0.0022,-0.0022,-0.0022,0,0.0154,0.0168,0.0152,0.0162,0.0162,0.0134,0.0147,0.0135,0.0115,0.0106,0.0097,0.0045,0.0021,-0.0005,-0.0003,-0.0016,-0.0048,-0.0011,-0.0057,-0.0061,-0.0065,-0.01,-0.0108,-0.002,-0.002,-0.002,-0.0021,0,0.0187,0.0199,0.0208,0.0211,0.0209,0.0216,0.0197,0.0192,0.0176,0.0155,0.0126,0.0085,0.0054,0.0041,0.0024,-0.0013,-0.0027,-0.0049,-0.0063,-0.0065,-0.0102,-0.0111,-0.0017,-0.0018,-0.0018,-0.0019,0,0,0.0217,0.023,0.0234,0.0242,0.0235,0.0237,0.024,0.0228,0.0225,0.0193,0.018,0.0136,0.0104,0.0083,0.0048,0.0001,-0.0048,-0.0028,-0.0032,-0.0058,-0.0162,-0.0139,-0.0147,-0.0082,-0.0083,-0.0084,-0.0172,0,0.0247,0.0279,0.0276,0.0304,0.0316,0.0296,0.0301,0.0283,0.0261,0.024,0.0182,0.0158,0.0122,0.0107,0.0053,-0.0025,-0.0072,-0.0022,-0.016,-0.0164,-0.0141,-0.0157,-0.0089,-0.0179,-0.0181,-0.0182,-0.0183,0,0.0277,0.0295,0.0329,0.0347,0.035,0.0362,0.0357,0.0359,0.0319,0.0299,0.0254,0.0208,0.0144,0.0111,-0.0026,0.0007,-0.0071,-0.0135,-0.0141,-0.0143,-0.0158,-0.0182,-0.02,-0.0199,-0.0198,-0.0196,-0.0195,0,0.0296,0.0331,0.036,0.0366,0.038,0.0391,0.0398,0.0375,0.0383,0.0336,0.0332,0.0236,0.0202,0.008,-0.0036,-0.0039,-0.0191,-0.0214,-0.0268,-0.0267,-0.0281,-0.0277,-0.0319,-0.0319,-0.0319,-0.0319,-0.0319,0,0.0316,0.0339,0.0374,0.0386,0.0422,0.0422,0.0445,0.0436,0.043,0.0443,0.0367,0.0353,0.019,0.0093,-0.0031,-0.0167,-0.019,-0.0268,-0.0293,-0.0257,-0.025,-0.0287,-0.0282,-0.0322,-0.0321,-0.0321,-0.032,0,0.0313,0.0339,0.0375,0.0411,0.043,0.0451,0.0494,0.0513,0.0503,0.0517,0.0511,0.0433,0.0311,0.015,-0.0043,-0.014,-0.0286,-0.033,-0.0261,-0.0281,-0.0326,-0.0318,-0.0406,-0.0406,-0.0406,-0.0406,-0.0406,0,0.0308,0.0332,0.0395,0.0429,0.0447,0.0488,0.0525,0.0543,0.0576,0.0572,0.0589,0.0489,0.0414,0.0174,-0.001,-0.0248,-0.0281,-0.0358,-0.0362,-0.0321,-0.0338,-0.0329,-0.0321,-0.0406,-0.0406,-0.0406,-0.0406,0,0.0303,0.0332,0.0367,0.0447,0.05,0.0556,0.0616,0.065,0.0679,0.0666,0.0658,0.0537,0.0402,0.02,0.0018,-0.0156,-0.0314,-0.0359,-0.0361,-0.0366,-0.0323,-0.0337,-0.0329,-0.0406,-0.0406,-0.0406,-0.0406,0,0.0307,0.0335,0.0405,0.047,0.0543,0.0623,0.0643,0.0698,0.0732,0.0737,0.073,0.0582,0.0489,0.0249,0.008,-0.0088,-0.0138,-0.02,-0.0211,-0.0213,-0.0134,-0.005,-0.0074,0,0,0,0,0,0.032,0.0371,0.043,0.0516,0.0586,0.0636,0.0715,0.0735,0.0763,0.0773,0.0759,0.0637,0.04,0.0299,0.0136,0.0058,-0.0182,-0.014,-0.0262,-0.0407,-0.0407,-0.0345,0,0,0,0,0,0,0.0339,0.0402,0.0436,0.0547,0.0608,0.07,0.0754,0.0771,0.0782,0.0778,0.0661,0.0591,0.0363,0.0493,0.0131,0.0079,-0.0021,-0.0256,-0.026,-0.0407,-0.0407,-0.0407,-0.0343,0,0,0,0,0]}]]